Date String (YYYY-MM-DD hh:mm:ss) UTC,Instrument flags,Ambient pressure (hPa),Sample flow (lpm),Bypass flow (lpm),Sample temperature (°C),Ambient temperature (°C),ASC tube jacket temperature (°C),LED temperature (°C),Box temperature (°C),Sample RH (%),Span deviation,Mass concentration (μg/m³),Mass concentration (μg/m³),Mass concentration (μg/m³)
DateTimeUTC,F1_M11,P_M11,Q1_M11,Q2_M11,T1_M11,T2_M11,T3_M11,T4_M11,T5_M11,U1_M11,ZSPAN_M11,X2_M11,X0_M11,X1_M11
2022-03-16 23:00:00,,0821.0,5.00,0.00,24.7,23.9,00.0,33.8,26.4,17.8,0000.0,0005.06,0012.74,0004.27
2022-03-16 23:01:00,,0821.0,4.99,0.00,24.7,23.9,00.0,33.8,26.4,18.2,0000.0,0005.12,0012.78,0004.28
2022-03-16 23:02:00,,0820.9,5.01,0.00,24.7,23.8,00.0,33.7,26.4,18.3,0000.0,0005.13,0012.71,0004.30
2022-03-16 23:03:00,,0821.0,5.00,0.00,24.6,23.8,00.0,33.7,26.4,18.4,0000.0,0005.14,0011.98,0004.32
2022-03-16 23:04:00,,0821.0,5.02,0.00,24.6,23.8,00.0,33.7,26.4,18.3,0000.0,0005.16,0010.91,0004.33
2022-03-16 23:05:00,,0821.0,5.00,0.00,24.6,23.8,00.0,33.7,26.3,18.0,0000.0,0005.18,0010.91,0004.33
2022-03-16 23:06:00,,0821.0,5.00,0.00,24.6,23.8,00.0,33.7,26.3,18.0,0000.0,0005.18,0010.89,0004.33
2022-03-16 23:07:00,,0821.0,5.00,0.00,24.6,23.8,00.0,33.7,26.4,18.1,0000.0,0005.18,0010.73,0004.34
2022-03-16 23:08:00,,0821.1,5.00,0.00,24.6,23.8,00.0,33.7,26.4,18.4,0000.0,0005.20,0010.45,0004.35
2022-03-16 23:09:00,,0821.1,5.00,0.00,24.6,23.8,00.0,33.7,26.4,18.9,0000.0,0005.19,0010.44,0004.35
2022-03-16 23:10:00,,0821.1,4.99,0.00,24.6,23.8,00.0,33.6,26.3,19.4,0000.0,0005.18,0011.05,0004.35
2022-03-16 23:11:00,,0821.0,5.00,0.00,24.6,23.8,00.0,33.6,26.3,18.8,0000.0,0005.18,0011.25,0004.35
2022-03-16 23:12:00,,0821.0,5.01,0.00,24.5,23.8,00.0,33.6,26.3,18.3,0000.0,0005.24,0011.84,0004.36
2022-03-16 23:13:00,,0821.0,5.01,0.00,24.6,23.8,00.0,33.6,26.3,18.4,0000.0,0005.30,0011.65,0004.36
2022-03-16 23:14:00,,0821.0,4.99,0.00,24.6,23.8,00.0,33.6,26.4,18.4,0000.0,0005.33,0011.71,0004.36
2022-03-16 23:15:00,,0821.1,5.00,0.00,24.6,23.8,00.0,33.6,26.3,18.6,0000.0,0005.29,0011.51,0004.37
2022-03-16 23:16:00,,0821.0,5.00,0.00,24.5,23.8,00.0,33.6,26.3,18.5,0000.0,0005.28,0011.45,0004.38
2022-03-16 23:17:00,,0821.0,5.00,0.00,24.5,23.8,00.0,33.6,26.3,18.2,0000.0,0005.29,0011.63,0004.38
2022-03-16 23:18:00,,0821.1,5.00,0.00,24.5,23.8,00.0,33.6,26.3,18.1,0000.0,0005.33,0011.97,0004.38
2022-03-16 23:19:00,,0821.1,5.00,0.00,24.5,23.8,00.0,33.6,26.3,18.4,0000.0,0005.33,0012.18,0004.38
2022-03-16 23:20:00,,0821.1,5.00,0.00,24.5,23.7,00.0,33.6,26.3,18.2,0000.0,0005.35,0012.65,0004.38
2022-03-16 23:21:00,,0821.1,5.00,0.00,24.5,23.7,00.0,33.5,26.3,18.1,0000.0,0005.39,0012.48,0004.38
2022-03-16 23:22:00,,0821.1,5.00,0.00,24.5,23.7,00.0,33.5,26.3,18.1,0000.0,0005.42,0012.83,0004.38
2022-03-16 23:23:00,,0821.1,5.00,0.00,24.5,23.8,00.0,33.5,26.3,18.2,0000.0,0005.40,0012.07,0004.38
2022-03-16 23:24:00,,0821.1,5.00,0.00,24.5,23.8,00.0,33.5,26.3,18.3,0000.0,0005.35,0011.83,0004.37
2022-03-16 23:25:00,,0821.1,5.00,0.00,24.5,23.8,00.0,33.5,26.4,18.1,0000.0,0005.35,0012.32,0004.38
2022-03-16 23:26:00,,0821.1,4.99,0.00,24.5,23.8,00.0,33.5,26.4,18.0,0000.0,0005.37,0012.36,0004.37
2022-03-16 23:27:00,,0821.1,5.00,0.00,24.5,23.9,00.0,33.5,26.4,18.1,0000.0,0005.38,0012.46,0004.36
2022-03-16 23:28:00,,0821.1,5.01,0.00,24.6,23.9,00.0,33.5,26.4,18.5,0000.0,0005.39,0012.54,0004.36
2022-03-16 23:29:00,,0821.1,5.01,0.00,24.6,23.9,00.0,33.5,26.4,18.8,0000.0,0005.37,0012.88,0004.35
2022-03-16 23:30:00,,0821.1,4.99,0.00,24.6,23.9,00.0,33.5,26.5,19.5,0000.0,0005.37,0012.73,0004.36
2022-03-16 23:31:00,,0821.1,4.99,0.00,24.6,24.0,00.0,33.5,26.4,19.4,0000.0,0005.34,0012.22,0004.36
2022-03-16 23:32:00,,0821.1,5.00,0.00,24.6,24.0,00.0,33.5,26.5,19.1,0000.0,0005.27,0011.91,0004.36
2022-03-16 23:33:00,,0821.2,5.00,0.00,24.6,24.0,00.0,33.5,26.5,18.8,0000.0,0005.30,0011.29,0004.38
2022-03-16 23:34:00,,0821.2,5.01,0.00,24.6,24.0,00.0,33.5,26.5,18.6,0000.0,0005.27,0011.03,0004.39
2022-03-16 23:35:00,,0821.2,4.99,0.00,24.6,24.0,00.0,33.5,26.5,18.7,0000.0,0005.24,0011.16,0004.39
2022-03-16 23:36:00,,0821.2,4.99,0.00,24.7,24.1,00.0,33.6,26.6,18.3,0000.0,0005.25,0010.78,0004.39
2022-03-16 23:37:00,,0821.2,5.00,0.00,24.7,24.1,00.0,33.6,26.6,18.3,0000.0,0005.25,0010.67,0004.40
2022-03-16 23:38:00,,0821.2,5.00,0.00,24.7,24.1,00.0,33.6,26.6,18.7,0000.0,0005.23,0010.61,0004.41
2022-03-16 23:39:00,,0821.2,4.99,0.00,24.7,24.1,00.0,33.6,26.6,18.6,0000.0,0005.23,0010.54,0004.42
2022-03-16 23:40:00,,0821.2,5.00,0.00,24.7,24.1,00.0,33.6,26.6,18.8,0000.0,0005.26,0010.17,0004.43
2022-03-16 23:41:00,,0821.2,4.99,0.00,24.7,24.1,00.0,33.6,26.6,18.7,0000.0,0005.29,0010.35,0004.43
2022-03-16 23:42:00,,0821.2,5.00,0.00,24.8,24.2,00.0,33.6,26.6,18.8,0000.0,0005.28,0010.22,0004.44
2022-03-16 23:43:00,,0821.2,5.01,0.00,24.8,24.2,00.0,33.6,26.6,18.4,0000.0,0005.33,0010.69,0004.45
2022-03-16 23:44:00,,0821.2,5.00,0.00,24.8,24.2,00.0,33.6,26.7,18.4,0000.0,0005.32,0010.94,0004.45
2022-03-16 23:45:00,,0821.2,5.00,0.00,24.8,24.2,00.0,33.7,26.7,18.6,0000.0,0005.32,0011.10,0004.44
2022-03-16 23:46:00,,0821.2,4.99,0.00,24.8,24.2,00.0,33.7,26.7,19.0,0000.0,0005.36,0011.74,0004.45
2022-03-16 23:47:00,,0821.2,4.99,0.00,24.8,24.2,00.0,33.7,26.7,19.4,0000.0,0005.38,0011.79,0004.46
2022-03-16 23:48:00,,0821.3,5.01,0.00,24.8,24.2,00.0,33.7,26.7,19.5,0000.0,0005.44,0012.05,0004.47
2022-03-16 23:49:00,,0821.3,4.99,0.00,24.8,24.2,00.0,33.7,26.6,19.2,0000.0,0005.50,0013.12,0004.49
2022-03-16 23:50:00,,0821.3,5.00,0.00,24.8,24.2,00.0,33.7,26.6,19.2,0000.0,0005.48,0013.47,0004.50
2022-03-16 23:51:00,,0821.3,5.00,0.00,24.8,24.2,00.0,33.7,26.6,19.3,0000.0,0005.42,0013.55,0004.51
2022-03-16 23:52:00,,0821.4,5.00,0.00,24.8,24.1,00.0,33.7,26.5,19.6,0000.0,0005.41,0013.51,0004.53
2022-03-16 23:53:00,,0821.3,4.99,0.00,24.8,24.1,00.0,33.7,26.6,19.8,0000.0,0005.44,0014.00,0004.54
2022-03-16 23:54:00,,0821.3,5.00,0.00,24.8,24.1,00.0,33.7,26.6,19.5,0000.0,0005.39,0013.92,0004.53
2022-03-16 23:55:00,,0821.4,5.00,0.00,24.8,24.1,00.0,33.7,26.6,19.6,0000.0,0005.39,0013.88,0004.51
2022-03-16 23:56:00,,0821.4,5.00,0.00,24.8,24.1,00.0,33.7,26.6,19.4,0000.0,0005.39,0014.69,0004.50
2022-03-16 23:57:00,,0821.4,5.00,0.00,24.8,24.1,00.0,33.7,26.6,19.2,0000.0,0005.40,0014.16,0004.48
2022-03-16 23:58:00,,0821.4,5.00,0.00,24.8,24.1,00.0,33.7,26.6,19.3,0000.0,0005.36,0014.03,0004.47
2022-03-16 23:59:00,,0821.4,5.01,0.00,24.8,24.1,00.0,33.7,26.6,19.5,0000.0,0005.30,0013.68,0004.45
